Burlington, WA
on Tuesday, February 19, 2013

Tuesday
Previous Day Next Day
Daily Summary
 ActualAverage (KBLI)Record (KBLI)
Temperature
Mean Temperature °F 41°F  
Max Temperature 48°F 49°F 60°F (1981)
Min Temperature 35°F 33°F 8°F (1986)
Degree Days
Heating Degree Days 24 24  
Month to date heating degree days 467  
Cooling Degree Days 0 0  
Month to date cooling degree days 0  
Year to date cooling degree days 0  
Moisture
Dew Point 38°F   
Average Humidity 92    
Maximum Humidity 100    
Minimum Humidity 66    
Precipitation
Precipitation 0.28 in 0.10 in 0.95 in (1961)
Month to date precipitation 2.09  
Year to date precipitation 6.76  
Wind
Wind Speed 9 mph   
Max Wind Speed 21 mph   
Max Gust Speed 22 mph   
Visibility 10 miles   
Events     

Key: T is trace of precipitation, MM is missing value
Source: NWS Daily Summary
Time(PST)TemperatureDew PointHumidity Pressure Visibility Wind DirectionWind SpeedGust SpeedPrecipitationEvents Conditions
12:15 AM 39.2°F 37.4°F 93% 29.77 in 10.0 miles ENE 6.9 mph - 0.00 in   Clear
12:35 AM 39.2°F 37.4°F 93% 29.77 in 10.0 miles ENE 6.9 mph - 0.00 in   Mostly Cloudy
12:55 AM 39.2°F 37.4°F 93% 29.77 in 10.0 miles ENE 11.5 mph - 0.00 in   Mostly Cloudy
1:15 AM 39.2°F 37.4°F 93% 29.77 in 10.0 miles ENE 11.5 mph - 0.00 in   Overcast
1:35 AM 39.2°F 37.4°F 93% 29.76 in 10.0 miles East 9.2 mph - 0.00 in   Overcast
1:55 AM 39.2°F 37.4°F 93% 29.76 in 10.0 miles ENE 9.2 mph - 0.00 in   Overcast
2:15 AM 39.2°F 37.4°F 93% 29.77 in 10.0 miles NE 8.1 mph - 0.00 in   Overcast
2:35 AM 39.2°F 37.4°F 93% 29.77 in 10.0 miles NE 8.1 mph - 0.00 in   Overcast
2:55 AM 39.2°F 37.4°F 93% 29.76 in 10.0 miles NE 6.9 mph - 0.00 in   Mostly Cloudy
3:15 AM 39.2°F 35.6°F 87% 29.77 in 10.0 miles ENE 8.1 mph - 0.00 in   Mostly Cloudy
3:35 AM 39.2°F 37.4°F 93% 29.77 in 10.0 miles ENE 8.1 mph - 0.00 in   Overcast
3:55 AM 39.2°F 35.6°F 87% 29.77 in 10.0 miles East 9.2 mph - 0.00 in   Overcast
4:15 AM 39.2°F 37.4°F 93% 29.77 in 10.0 miles ENE 10.4 mph - 0.00 in   Overcast
4:35 AM 39.2°F 35.6°F 87% 29.77 in 10.0 miles ENE 11.5 mph - 0.00 in   Overcast
4:55 AM 39.2°F 35.6°F 87% 29.78 in 10.0 miles ENE 10.4 mph - 0.00 in   Overcast
5:15 AM 39.2°F 35.6°F 87% 29.78 in 10.0 miles NE 10.4 mph - 0.00 in   Overcast
5:35 AM 39.2°F 35.6°F 87% 29.78 in 10.0 miles NE 11.5 mph - 0.00 in   Overcast
5:55 AM 39.2°F 35.6°F 87% 29.78 in 10.0 miles ENE 9.2 mph - 0.00 in   Overcast
6:15 AM 39.2°F 35.6°F 87% 29.79 in 10.0 miles NE 9.2 mph - 0.00 in   Overcast
6:35 AM 37.4°F 35.6°F 93% 29.79 in 10.0 miles NE 9.2 mph - 0.00 in   Mostly Cloudy
7:15 AM 37.4°F 35.6°F 93% 29.80 in 10.0 miles NE 10.4 mph - 0.00 in   Overcast
7:35 AM 37.4°F 35.6°F 93% 29.81 in 10.0 miles NE 10.4 mph - 0.00 in   Overcast
7:55 AM 37.4°F 35.6°F 93% 29.81 in 10.0 miles NNE 9.2 mph - 0.00 in   Overcast
8:15 AM 37.4°F 35.6°F 93% 29.82 in 10.0 miles North 6.9 mph - 0.00 in   Overcast
8:35 AM 37.4°F 35.6°F 93% 29.83 in 10.0 miles NE 6.9 mph - 0.00 in   Overcast
8:55 AM 39.2°F 35.6°F 87% 29.83 in 10.0 miles NE 5.8 mph - 0.00 in   Overcast
9:15 AM 39.2°F 35.6°F 87% 29.83 in 10.0 miles ENE 6.9 mph - 0.00 in   Scattered Clouds
9:35 AM 41.0°F 35.6°F 81% 29.83 in 10.0 miles NE 4.6 mph - 0.00 in   Clear
9:55 AM 42.8°F 37.4°F 81% 29.83 in 10.0 miles North 3.5 mph - 0.00 in   Clear
10:15 AM 42.8°F 37.4°F 81% 29.83 in 10.0 miles NNE 3.5 mph - 0.00 in   Clear
10:35 AM 44.6°F 37.4°F 76% 29.83 in 10.0 miles NW 6.9 mph - 0.00 in   Clear
10:55 AM - - N/A% - - North - - 0.00 in   Unknown
11:15 AM - - N/A% - - North - - 0.00 in   Unknown
11:35 AM - - N/A% - - North - - 0.00 in   Unknown
11:55 AM - - N/A% - - North - - 0.00 in   Unknown
12:15 PM - - N/A% - - North - - 0.00 in   Unknown
12:35 PM - - N/A% - - North - - 0.00 in   Unknown
12:55 PM - - N/A% 29.84 in - NNW 18.4 mph - 0.28 in   Unknown
1:15 PM 46.4°F 35.6°F 66% 29.85 in 10.0 miles NNW 18.4 mph 21.9 mph 0.00 in   Unknown
1:35 PM 48.2°F 37.4°F 66% 29.85 in 10.0 miles NW 16.1 mph 19.6 mph 0.00 in   Clear
1:55 PM 46.4°F 41.0°F 81% 29.86 in 10.0 miles NW 17.3 mph 20.7 mph 0.00 in   Clear
2:15 PM 46.4°F 42.8°F 87% 29.86 in 10.0 miles WNW 15.0 mph - 0.00 in   Clear
2:35 PM 46.4°F 41.0°F 81% 29.86 in 10.0 miles WNW 18.4 mph - 0.00 in   Clear
3:15 PM 46.4°F 42.8°F 87% 29.88 in 10.0 miles NW 17.3 mph - 0.00 in   Clear
3:35 PM 46.4°F 42.8°F 87% 29.88 in 10.0 miles NW 20.7 mph - 0.00 in   Clear
4:35 PM 44.6°F 42.8°F 93% 29.89 in 10.0 miles NW 13.8 mph - 0.00 in   Clear
4:55 PM 42.8°F 42.8°F 100% 29.89 in 10.0 miles NW 15.0 mph - 0.00 in   Clear
5:35 PM 42.8°F 42.8°F 100% 29.90 in 10.0 miles NW 11.5 mph - 0.00 in   Clear
5:55 PM 41.0°F 41.0°F 100% 29.90 in 10.0 miles NW 9.2 mph - 0.00 in   Clear
6:15 PM 39.2°F 39.2°F 100% 29.90 in 10.0 miles NW 8.1 mph - 0.00 in   Clear
6:35 PM 39.2°F 39.2°F 100% 29.91 in 10.0 miles NW 9.2 mph - 0.00 in   Clear
6:55 PM 39.2°F 39.2°F 100% 29.91 in 10.0 miles NW 8.1 mph - 0.00 in   Clear
7:15 PM 39.2°F 39.2°F 100% 29.92 in 10.0 miles NW 9.2 mph - 0.00 in   Clear
7:35 PM 41.0°F 41.0°F 100% 29.93 in 10.0 miles NW 10.4 mph - 0.00 in   Clear
7:55 PM 41.0°F 41.0°F 100% 29.93 in 10.0 miles NNW 9.2 mph - 0.00 in   Clear
8:15 PM 41.0°F 41.0°F 100% 29.94 in 10.0 miles NNW 10.4 mph - 0.00 in   Clear
8:35 PM 39.2°F 39.2°F 100% 29.95 in 10.0 miles NW 8.1 mph - 0.00 in   Clear
8:55 PM 37.4°F 37.4°F 100% 29.96 in 10.0 miles NW 3.5 mph - 0.00 in   Clear
9:15 PM 37.4°F 37.4°F 100% 29.96 in 10.0 miles Calm Calm - 0.00 in   Clear
9:35 PM 37.4°F 37.4°F 100% 29.97 in 10.0 miles Calm Calm - 0.00 in   Clear
9:55 PM 35.6°F 35.6°F 100% 29.97 in 10.0 miles Calm Calm - 0.00 in   Clear
10:15 PM 35.6°F 35.6°F 100% 29.98 in 10.0 miles Calm Calm - 0.00 in   Clear
10:35 PM 35.6°F 35.6°F 100% 29.99 in 10.0 miles Calm Calm - 0.00 in   Clear
10:55 PM 35.6°F 35.6°F 100% 30.00 in 10.0 miles Calm Calm - 0.00 in   Scattered Clouds
11:15 PM 35.6°F 35.6°F 100% 30.00 in 10.0 miles Calm Calm - 0.00 in   Mostly Cloudy
11:35 PM 35.6°F 35.6°F 100% 30.01 in 10.0 miles NE 3.5 mph - 0.00 in   Overcast
Moon Phase
Feb. 19 Feb. 25 Mar. 04 Mar. 11 Mar. 19
Sunrise:07:09 AM (PST) Moon Rise:11:59 AM (PST)2/19
Sunset:05:38 PM (PST) Moon Set:03:00 AM (PST)2/19

Copyright © 2014 The Weather Underground, Inc.